| time (UTC) | temp F | wind direction | speed knots | gust knots | rain 1hr in | rain 24hr in | rain mn in | humidity % | barometer mb |
| 20260510202151 | 70 | 220 | 2.6 | 6.1 | 0.00 | 0.00 | 0.00 | 62 | 1019.2 |
| 20260510201652 | 68 | 223 | 2.6 | 7.8 | 0.00 | 0.00 | 0.00 | 64 | 1019.1 |
| 20260510201410 | 67 | 154 | 3.5 | 7.8 | 0.00 | 0.00 | 0.00 | 62 | 1019.1 |
| 20260510200642 | 67 | 150 | 3.5 | 6.1 | 0.00 | 0.00 | 0.00 | 64 | 1019.0 |
| 20260510200138 | 68 | 200 | 2.6 | 8.7 | 0.00 | 0.00 | 0.00 | 65 | 1019.2 |
| 20260510195637 | 68 | 162 | 1.7 | 8.7 | 0.00 | 0.00 | 0.00 | 63 | 1019.3 |
| 20260510195128 | 67 | 13 | 1.7 | 4.3 | 0.00 | 0.00 | 0.00 | 62 | 1019.3 |
| 20260510194614 | 67 | 36 | 0.9 | 3.5 | 0.00 | 0.00 | 0.00 | 67 | 1019.4 |
| 20260510194108 | 66 | 19 | 1.7 | 4.3 | 0.00 | 0.00 | 0.00 | 68 | 1019.6 |
| 20260510193558 | 64 | 18 | 2.6 | 6.1 | 0.00 | 0.00 | 0.00 | 65 | 1019.6 |
| 20260510193057 | 65 | 136 | 2.6 | 6.1 | 0.00 | 0.00 | 0.00 | 65 | 1019.6 |
| 20260510192557 | 64 | 123 | 1.7 | 6.1 | 0.00 | 0.00 | 0.00 | 65 | 1019.6 |
| 20260510192053 | 65 | 47 | 1.7 | 6.1 | 0.00 | 0.00 | 0.00 | 66 | 1019.4 |
| 20260510191546 | 65 | 77 | 1.7 | 7.0 | 0.00 | 0.00 | 0.00 | 68 | 1019.5 |
| 20260510191046 | 65 | 144 | 1.7 | 7.0 | 0.00 | 0.00 | 0.00 | 63 | 1019.6 |
| 20260510190544 | 65 | 275 | 1.7 | 6.1 | 0.00 | 0.00 | 0.00 | 67 | 1019.5 |
| 20260510190307 | 65 | 63 | 2.6 | 6.1 | 0.00 | 0.00 | 0.00 | 65 | 1019.5 |
| 20260510185543 | 65 | 79 | 2.6 | 6.1 | 0.00 | 0.00 | 0.00 | 66 | 1019.4 |
| 20260510185037 | 64 | 170 | 1.7 | 6.1 | 0.00 | 0.00 | 0.00 | 67 | 1019.4 |
| 20260510184757 | 64 | 265 | 1.7 | 4.3 | 0.00 | 0.00 | 0.00 | 70 | 1019.5 |
| 20260510184032 | 63 | 237 | 2.6 | 5.2 | 0.00 | 0.00 | 0.00 | 69 | 1019.5 |
| 20260510183533 | 62 | 157 | 2.6 | 5.2 | 0.00 | 0.00 | 0.00 | 70 | 1019.7 |
| 20260510183254 | 63 | 150 | 2.6 | 6.1 | 0.00 | 0.00 | 0.00 | 70 | 1019.7 |
| 20260510182535 | 63 | 68 | 3.5 | 6.1 | 0.00 | 0.00 | 0.00 | 68 | 1019.6 |
| 20260510182027 | 62 | 108 | 2.6 | 5.2 | 0.00 | 0.00 | 0.00 | 71 | 1019.6 |
| 20260510181519 | 62 | 143 | 3.5 | 6.1 | 0.00 | 0.00 | 0.00 | 71 | 1019.7 |
| 20260510181019 | 61 | 153 | 3.5 | 7.0 | 0.00 | 0.00 | 0.00 | 72 | 1019.7 |
| 20260510180518 | 60 | 128 | 2.6 | 7.0 | 0.00 | 0.00 | 0.00 | 75 | 1019.6 |
| 20260510180017 | 60 | 143 | 2.6 | 6.1 | 0.00 | 0.00 | 0.00 | 74 | 1019.5 |
| 20260510175513 | 59 | 101 | 2.6 | 6.1 | 0.00 | 0.00 | 0.00 | 74 | 1019.5 |
| 20260510175014 | 60 | 133 | 1.7 | 4.3 | 0.00 | 0.00 | 0.00 | 73 | 1019.6 |
| 20260510174508 | 60 | 131 | 1.7 | 4.3 | 0.00 | 0.00 | 0.00 | 73 | 1019.6 |
| 20260510174008 | 60 | 135 | 0.9 | 4.3 | 0.00 | 0.00 | 0.00 | 72 | 1019.5 |
| 20260510173511 | 61 | 334 | 0.9 | 3.5 | 0.00 | 0.00 | 0.00 | 75 | 1019.4 |
| 20260510173239 | 59 | 103 | 1.7 | 3.5 | 0.00 | 0.00 | 0.00 | 73 | 1019.5 |
| 20260510172506 | 59 | 22 | 1.7 | 4.3 | 0.00 | 0.00 | 0.00 | 74 | 1019.4 |
| 20260510172005 | 59 | 115 | 1.7 | 4.3 | 0.00 | 0.00 | 0.00 | 73 | 1019.3 |
| 20260510171503 | 60 | 183 | 2.6 | 4.3 | 0.00 | 0.00 | 0.00 | 73 | 1019.4 |
| 20260510171004 | 60 | 200 | 2.6 | 7.0 | 0.00 | 0.00 | 0.00 | 75 | 1019.2 |
| 20260510170500 | 60 | 183 | 3.5 | 7.0 | 0.00 | 0.00 | 0.00 | 75 | 1019.1 |
| 20260510165959 | 60 | 158 | 3.5 | 7.8 | 0.00 | 0.00 | 0.00 | 76 | 1019.2 |
| 20260510165718 | 59 | 176 | 2.6 | 7.8 | 0.00 | 0.00 | 0.00 | 74 | 1019.2 |
| 20260510164958 | 60 | 183 | 2.6 | 7.0 | 0.00 | 0.00 | 0.00 | 72 | 1019.2 |
| 20260510164458 | 60 | 172 | 2.6 | 7.0 | 0.00 | 0.00 | 0.00 | 75 | 1019.1 |
| 20260510163956 | 60 | 185 | 2.6 | 6.1 | 0.00 | 0.00 | 0.00 | 75 | 1019.2 |
| 20260510163453 | 60 | 223 | 2.6 | 5.2 | 0.00 | 0.00 | 0.00 | 76 | 1019.1 |
| 20260510163444 | 59 | 154 | 2.6 | 6.1 | 0.00 | 0.00 | 0.00 | 76 | 1019.2 |
| 20260510162455 | 58 | 173 | 2.6 | 6.1 | 0.00 | 0.00 | 0.00 | 76 | 1019.1 |
| 20260510161953 | 58 | 110 | 2.6 | 6.1 | 0.00 | 0.00 | 0.00 | 79 | 1019.1 |
| 20260510161453 | 57 | 144 | 2.6 | 5.2 | 0.00 | 0.00 | 0.00 | 80 | 1019.2 |
| 20260510160955 | 56 | 166 | 2.6 | 5.2 | 0.00 | 0.00 | 0.00 | 80 | 1019.1 |
| 20260510160455 | 56 | 234 | 2.6 | 5.2 | 0.00 | 0.00 | 0.00 | 81 | 1019.0 |
| 20260510155941 | 56 | 231 | 2.6 | 7.0 | 0.00 | 0.00 | 0.00 | 81 | 1019.0 |
| 20260510155441 | 56 | 191 | 3.5 | 7.0 | 0.00 | 0.00 | 0.00 | 81 | 1019.0 |
| 20260510155202 | 56 | 200 | 2.6 | 6.1 | 0.00 | 0.00 | 0.00 | 80 | 1019.0 |
| 20260510154440 | 56 | 236 | 3.5 | 7.8 | 0.00 | 0.00 | 0.00 | 81 | 1019.1 |
| 20260510153940 | 56 | 229 | 3.5 | 7.8 | 0.00 | 0.00 | 0.00 | 82 | 1019.0 |
| 20260510153439 | 56 | 221 | 2.6 | 7.8 | 0.00 | 0.00 | 0.00 | 82 | 1019.0 |
| 20260510152941 | 55 | 256 | 2.6 | 7.8 | 0.00 | 0.00 | 0.00 | 83 | 1018.9 |
| 20260510152439 | 55 | 187 | 2.6 | 7.0 | 0.00 | 0.00 | 0.00 | 83 | 1018.9 |
| 20260510152432 | 55 | 253 | 3.5 | 7.0 | 0.00 | 0.00 | 0.00 | 83 | 1018.9 |
| 20260510151436 | 55 | 213 | 2.6 | 5.2 | 0.00 | 0.00 | 0.00 | 83 | 1018.8 |
| 20260510150937 | 55 | 218 | 2.6 | 5.2 | 0.00 | 0.00 | 0.00 | 84 | 1018.8 |
| 20260510150435 | 54 | 230 | 2.6 | 5.2 | 0.00 | 0.00 | 0.00 | 85 | 1018.7 |
| 20260510145936 | 54 | 168 | 2.6 | 5.2 | 0.00 | 0.00 | 0.00 | 85 | 1018.6 |
| 20260510145434 | 54 | 184 | 2.6 | 7.0 | 0.00 | 0.00 | 0.00 | 85 | 1018.6 |
| 20260510144931 | 54 | 191 | 2.6 | 7.0 | 0.00 | 0.00 | 0.00 | 85 | 1018.5 |
| 20260510144430 | 54 | 187 | 2.6 | 5.2 | 0.00 | 0.00 | 0.00 | 85 | 1018.5 |
| 20260510143922 | 54 | 204 | 2.6 | 6.1 | 0.00 | 0.00 | 0.00 | 85 | 1018.6 |
| 20260510143422 | 53 | 229 | 2.6 | 6.1 | 0.00 | 0.00 | 0.00 | 85 | 1018.5 |
| 20260510143400 | 53 | 180 | 1.7 | 5.2 | 0.00 | 0.00 | 0.00 | 86 | 1018.4 |
| 20260510142854 | 53 | 187 | 1.7 | 3.5 | 0.00 | 0.00 | 0.00 | 87 | 1018.1 |
| 20260510141908 | 53 | 173 | 1.7 | 3.5 | 0.00 | 0.00 | 0.00 | 86 | 1018.0 |
| 20260510141403 | 53 | 179 | 1.7 | 3.5 | 0.00 | 0.00 | 0.00 | 87 | 1018.1 |
| 20260510140905 | 53 | 143 | 2.6 | 5.2 | 0.00 | 0.00 | 0.00 | 87 | 1018.1 |
| 20260510140402 | 53 | 166 | 2.6 | 6.1 | 0.00 | 0.00 | 0.00 | 87 | 1018.1 |
| 20260510135859 | 53 | 207 | 2.6 | 6.1 | 0.00 | 0.00 | 0.00 | 87 | 1018.1 |
| 20260510135357 | 52 | 158 | 2.6 | 6.1 | 0.00 | 0.00 | 0.00 | 88 | 1017.9 |
| 20260510134852 | 52 | 169 | 2.6 | 4.3 | 0.00 | 0.00 | 0.00 | 88 | 1017.9 |
| 20260510134348 | 52 | 200 | 2.6 | 5.2 | 0.00 | 0.00 | 0.00 | 88 | 1017.8 |
| 20260510133845 | 52 | 152 | 1.7 | 3.5 | 0.00 | 0.00 | 0.00 | 88 | 1017.9 |
| 20260510133343 | 52 | 139 | 1.7 | 3.5 | 0.00 | 0.00 | 0.00 | 89 | 1017.8 |
| 20260510132841 | 52 | 131 | 1.7 | 3.5 | 0.00 | 0.00 | 0.00 | 88 | 1017.8 |
| 20260510132332 | 52 | 131 | 1.7 | 3.5 | 0.00 | 0.00 | 0.00 | 88 | 1017.7 |
| 20260510131835 | 51 | 129 | 1.7 | 3.5 | 0.00 | 0.00 | 0.00 | 88 | 1018.0 |
| 20260510131325 | 51 | 159 | 1.7 | 5.2 | 0.00 | 0.00 | 0.00 | 88 | 1018.0 |
| 20260510130824 | 51 | 177 | 2.6 | 5.2 | 0.00 | 0.00 | 0.00 | 89 | 1018.0 |
| 20260510130316 | 51 | 196 | 2.6 | 5.2 | 0.00 | 0.00 | 0.00 | 89 | 1017.8 |
| 20260510125815 | 51 | 203 | 2.6 | 5.2 | 0.00 | 0.00 | 0.00 | 89 | 1017.8 |
| 20260510125317 | 51 | 179 | 2.6 | 3.5 | 0.00 | 0.00 | 0.00 | 89 | 1017.7 |
| 20260510124817 | 51 | 175 | 1.7 | 3.5 | 0.00 | 0.00 | 0.00 | 89 | 1017.5 |
| 20260510124314 | 51 | 185 | 1.7 | 3.5 | 0.00 | 0.00 | 0.00 | 89 | 1017.7 |
| 20260510124042 | 51 | 177 | 2.6 | 5.2 | 0.00 | 0.00 | 0.00 | 89 | 1017.6 |
| 20260510123800 | 51 | 167 | 3.5 | 6.1 | 0.00 | 0.00 | 0.00 | 89 | 1017.4 |
| 20260510122809 | 51 | 187 | 2.6 | 6.1 | 0.00 | 0.00 | 0.00 | 89 | 1017.3 |
| 20260510122306 | 51 | 190 | 2.6 | 5.2 | 0.00 | 0.00 | 0.00 | 88 | 1017.3 |
| 20260510121759 | 51 | 175 | 2.6 | 4.3 | 0.00 | 0.00 | 0.00 | 88 | 1017.3 |
| 20260510121256 | 51 | 198 | 2.6 | 5.2 | 0.00 | 0.00 | 0.00 | 88 | 1017.5 |
| 20260510120759 | 51 | 223 | 2.6 | 5.2 | 0.00 | 0.00 | 0.00 | 88 | 1017.6 |
| 20260510120251 | 51 | 180 | 1.7 | 3.5 | 0.00 | 0.00 | 0.00 | 88 | 1017.2 |
| 20260510115749 | 51 | 169 | 1.7 | 4.3 | 0.00 | 0.00 | 0.00 | 88 | 1017.4 |
| 20260510115249 | 51 | 179 | 2.6 | 4.3 | 0.00 | 0.00 | 0.00 | 88 | 1017.4 |
| 20260510114749 | 51 | 194 | 2.6 | 7.0 | 0.00 | 0.00 | 0.00 | 88 | 1017.4 |
| 20260510114244 | 51 | 195 | 2.6 | 7.0 | 0.00 | 0.00 | 0.00 | 88 | 1017.3 |
| 20260510113745 | 51 | 180 | 2.6 | 6.1 | 0.00 | 0.00 | 0.00 | 88 | 1017.3 |
| 20260510113245 | 51 | 179 | 3.5 | 7.8 | 0.00 | 0.00 | 0.00 | 88 | 1017.1 |
| 20260510112744 | 51 | 233 | 2.6 | 7.8 | 0.00 | 0.00 | 0.00 | 88 | 1017.3 |
| 20260510112242 | 51 | 221 | 2.6 | 6.1 | 0.00 | 0.00 | 0.00 | 88 | 1017.3 |
| 20260510111741 | 51 | 187 | 2.6 | 6.1 | 0.00 | 0.00 | 0.00 | 88 | 1017.1 |
| 20260510111242 | 52 | 182 | 3.5 | 6.1 | 0.00 | 0.00 | 0.00 | 88 | 1017.1 |
| 20260510110735 | 52 | 189 | 3.5 | 7.0 | 0.00 | 0.00 | 0.00 | 87 | 1017.2 |
| 20260510110720 | 52 | 216 | 3.5 | 7.0 | 0.00 | 0.00 | 0.00 | 87 | 1017.1 |
| 20260510105725 | 52 | 187 | 2.6 | 6.1 | 0.00 | 0.00 | 0.00 | 87 | 1017.1 |
| 20260510105225 | 52 | 213 | 2.6 | 6.1 | 0.00 | 0.00 | 0.00 | 87 | 1017.1 |
| 20260510104717 | 52 | 185 | 3.5 | 7.8 | 0.00 | 0.00 | 0.00 | 87 | 1017.1 |
| 20260510104215 | 53 | 214 | 4.3 | 8.7 | 0.00 | 0.00 | 0.00 | 86 | 1017.0 |
| 20260510103714 | 53 | 232 | 5.2 | 8.7 | 0.00 | 0.00 | 0.00 | 86 | 1017.0 |
| 20260510103216 | 53 | 240 | 4.3 | 7.8 | 0.00 | 0.00 | 0.00 | 86 | 1016.9 |
| 20260510102714 | 53 | 222 | 5.2 | 8.7 | 0.00 | 0.00 | 0.00 | 86 | 1016.7 |
| 20260510102214 | 53 | 239 | 6.1 | 11.3 | 0.00 | 0.00 | 0.00 | 86 | 1016.9 |
| 20260510101712 | 53 | 237 | 6.1 | 11.3 | 0.00 | 0.00 | 0.00 | 86 | 1016.9 |
| 20260510101212 | 53 | 228 | 4.3 | 10.4 | 0.00 | 0.00 | 0.00 | 86 | 1016.9 |
| 20260510100713 | 53 | 231 | 5.2 | 8.7 | 0.00 | 0.00 | 0.00 | 86 | 1016.9 |
| 20260510100433 | 53 | 230 | 5.2 | 9.6 | 0.00 | 0.00 | 0.00 | 86 | 1016.8 |
| 20260510095710 | 53 | 241 | 3.5 | 9.6 | 0.00 | 0.00 | 0.00 | 86 | 1016.7 |
| 20260510095211 | 53 | 220 | 2.6 | 6.1 | 0.00 | 0.00 | 0.00 | 85 | 1016.5 |
| 20260510094707 | 53 | 227 | 2.6 | 4.3 | 0.00 | 0.00 | 0.00 | 85 | 1016.5 |
| 20260510094205 | 53 | 198 | 2.6 | 4.3 | 0.00 | 0.00 | 0.00 | 85 | 1016.4 |
| 20260510093701 | 53 | 196 | 1.7 | 4.3 | 0.00 | 0.00 | 0.00 | 85 | 1016.3 |
| 20260510093156 | 54 | 219 | 1.7 | 3.5 | 0.00 | 0.00 | 0.00 | 85 | 1016.4 |
| 20260510092655 | 54 | 198 | 1.7 | 3.5 | 0.00 | 0.00 | 0.00 | 84 | 1016.3 |
| 20260510092154 | 54 | 223 | 1.7 | 3.5 | 0.00 | 0.00 | 0.00 | 84 | 1016.4 |
| 20260510091645 | 54 | 207 | 1.7 | 3.5 | 0.00 | 0.00 | 0.00 | 84 | 1016.3 |
| 20260510091150 | 54 | 180 | 1.7 | 3.5 | 0.00 | 0.00 | 0.00 | 83 | 1016.3 |
| 20260510090647 | 54 | 194 | 1.7 | 3.5 | 0.00 | 0.00 | 0.00 | 83 | 1016.2 |
| 20260510090146 | 54 | 181 | 1.7 | 4.3 | 0.00 | 0.00 | 0.00 | 83 | 1016.3 |
| 20260510085646 | 55 | 223 | 1.7 | 4.3 | 0.00 | 0.00 | 0.00 | 83 | 1016.4 |
| 20260510085136 | 55 | 161 | 0.9 | 3.5 | 0.00 | 0.00 | 0.00 | 82 | 1016.3 |
| 20260510084623 | 55 | 164 | 0.9 | 3.5 | 0.00 | 0.00 | 0.00 | 82 | 1016.4 |
| 20260510084104 | 55 | 196 | 1.7 | 3.5 | 0.00 | 0.00 | 0.00 | 82 | 1016.3 |
| 20260510083558 | 55 | 222 | 3.5 | 7.0 | 0.00 | 0.00 | 0.00 | 82 | 1016.4 |
| 20260510083054 | 55 | 212 | 3.5 | 7.0 | 0.00 | 0.00 | 0.00 | 81 | 1016.3 |
| 20260510082554 | 55 | 234 | 3.5 | 7.0 | 0.00 | 0.00 | 0.00 | 81 | 1016.4 |
| 20260510082055 | 56 | 224 | 2.6 | 4.3 | 0.00 | 0.00 | 0.00 | 81 | 1016.3 |
| 20260510081551 | 56 | 195 | 2.6 | 3.5 | 0.00 | 0.00 | 0.00 | 81 | 1016.1 |
| 20260510081052 | 56 | 200 | 2.6 | 5.2 | 0.00 | 0.00 | 0.00 | 81 | 1016.0 |
| 20260510080549 | 56 | 189 | 2.6 | 5.2 | 0.00 | 0.00 | 0.00 | 81 | 1016.1 |
| 20260510080052 | 56 | 167 | 2.6 | 4.3 | 0.00 | 0.00 | 0.00 | 81 | 1016.1 |
| 20260510075551 | 56 | 160 | 1.7 | 3.5 | 0.00 | 0.00 | 0.00 | 81 | 1016.2 |
| 20260510075053 | 56 | 162 | 1.7 | 2.6 | 0.00 | 0.00 | 0.00 | 80 | 1016.3 |
| 20260510074543 | 56 | 212 | 1.7 | 2.6 | 0.00 | 0.00 | 0.00 | 80 | 1016.3 |
| 20260510074044 | 56 | 212 | 1.7 | 1.7 | 0.00 | 0.00 | 0.00 | 80 | 1016.2 |
| 20260510073802 | 57 | 212 | 0.9 | 2.6 | 0.00 | 0.00 | 0.00 | 79 | 1016.1 |
| 20260510073035 | 57 | 212 | 1.7 | 4.3 | 0.00 | 0.00 | 0.00 | 78 | 1016.2 |
| 20260510072758 | 58 | 219 | 2.6 | 4.3 | 0.00 | 0.00 | 0.00 | 76 | 1016.0 |
| 20260510072032 | 58 | 241 | 3.5 | 5.2 | 0.00 | 0.00 | 0.00 | 76 | 1016.0 |
| 20260510071533 | 58 | 233 | 3.5 | 5.2 | 0.00 | 0.00 | 0.00 | 76 | 1015.9 |
| 20260510071033 | 58 | 240 | 3.5 | 7.0 | 0.00 | 0.00 | 0.00 | 75 | 1016.0 |
| 20260510070533 | 58 | 222 | 3.5 | 7.0 | 0.00 | 0.00 | 0.00 | 75 | 1015.9 |
| 20260510070032 | 59 | 242 | 3.5 | 5.2 | 0.00 | 0.00 | 0.00 | 74 | 1016.0 |
| 20260510065531 | 59 | 247 | 2.6 | 4.3 | 0.00 | 0.00 | 0.00 | 73 | 1016.0 |
| 20260510065027 | 59 | 236 | 3.5 | 7.0 | 0.00 | 0.00 | 0.00 | 73 | 1015.8 |
| 20260510064751 | 59 | 234 | 3.5 | 7.0 | 0.00 | 0.00 | 0.00 | 73 | 1015.8 |
| 20260510064250 | 59 | 237 | 3.5 | 5.2 | 0.00 | 0.00 | 0.00 | 73 | 1015.9 |
| 20260510063527 | 59 | 231 | 3.5 | 5.2 | 0.00 | 0.00 | 0.00 | 73 | 1015.8 |
| 20260510063024 | 60 | 231 | 3.5 | 7.0 | 0.00 | 0.00 | 0.00 | 72 | 1015.7 |
| 20260510062525 | 60 | 239 | 3.5 | 7.0 | 0.00 | 0.00 | 0.00 | 72 | 1015.8 |
| 20260510062025 | 60 | 244 | 2.6 | 4.3 | 0.00 | 0.00 | 0.00 | 73 | 1015.8 |
| 20260510061742 | 60 | 223 | 1.7 | 2.6 | 0.00 | 0.00 | 0.00 | 74 | 1015.8 |
| 20260510061021 | 60 | 225 | 0.9 | 3.5 | 0.00 | 0.00 | 0.00 | 74 | 1015.7 |
| 20260510060516 | 60 | 225 | 0.9 | 3.5 | 0.00 | 0.00 | 0.00 | 75 | 1015.7 |
| 20260510060017 | 60 | 12 | 0.0 | 1.7 | 0.00 | 0.00 | 0.00 | 77 | 1015.7 |
| 20260510055513 | 61 | 12 | 0.0 | 1.7 | 0.00 | 0.00 | 0.00 | 77 | 1015.7 |
| 20260510055014 | 62 | 12 | 0.0 | 0.9 | 0.00 | 0.00 | 0.00 | 76 | 1015.6 |
| 20260510054506 | 62 | 12 | 0.0 | 0.0 | 0.00 | 0.00 | 0.00 | 77 | 1015.5 |
| 20260510053951 | 62 | 12 | 0.0 | 2.6 | 0.00 | 0.00 | 0.00 | 76 | 1015.6 |
| 20260510053436 | 62 | 18 | 0.0 | 1.7 | 0.00 | 0.00 | 0.00 | 77 | 1015.7 |
| 20260510052925 | 62 | 18 | 0.9 | 1.7 | 0.00 | 0.00 | 0.00 | 77 | 1015.7 |
| 20260510052420 | 62 | 18 | 0.0 | 1.7 | 0.00 | 0.00 | 0.00 | 78 | 1015.6 |
| 20260510051912 | 62 | 265 | 0.9 | 2.6 | 0.00 | 0.00 | 0.00 | 77 | 1015.6 |
| 20260510051409 | 62 | 265 | 0.9 | 2.6 | 0.00 | 0.00 | 0.00 | 77 | 1015.5 |
| 20260510051129 | 62 | 261 | 1.7 | 3.5 | 0.00 | 0.00 | 0.00 | 78 | 1015.4 |
| 20260510050404 | 62 | 250 | 1.7 | 4.3 | 0.00 | 0.00 | 0.00 | 79 | 1015.3 |
| 20260510045854 | 62 | 250 | 1.7 | 4.3 | 0.00 | 0.00 | 0.00 | 80 | 1015.3 |
| 20260510045351 | 62 | 233 | 1.7 | 3.5 | 0.00 | 0.00 | 0.00 | 80 | 1015.2 |
| 20260510044852 | 63 | 270 | 1.7 | 3.5 | 0.00 | 0.00 | 0.00 | 80 | 1015.1 |
| 20260510044350 | 63 | 260 | 1.7 | 3.5 | 0.00 | 0.00 | 0.00 | 79 | 1015.0 |
| 20260510043847 | 63 | 254 | 0.9 | 2.6 | 0.00 | 0.00 | 0.00 | 76 | 1014.9 |
| 20260510043342 | 63 | 241 | 0.9 | 1.7 | 0.00 | 0.00 | 0.00 | 74 | 1015.0 |
| 20260510042840 | 63 | 241 | 0.0 | 0.9 | 0.00 | 0.00 | 0.00 | 73 | 1014.9 |
| 20260510042329 | 63 | 241 | 0.0 | 0.9 | 0.00 | 0.00 | 0.00 | 73 | 1014.9 |
| 20260510041828 | 63 | 241 | 0.0 | 0.9 | 0.00 | 0.00 | 0.00 | 73 | 1014.8 |
| 20260510041320 | 63 | 241 | 0.0 | 1.7 | 0.00 | 0.00 | 0.00 | 73 | 1014.7 |
| 20260510040811 | 63 | 241 | 0.9 | 1.7 | 0.00 | 0.00 | 0.00 | 73 | 1014.7 |
| 20260510040302 | 65 | 265 | 0.9 | 1.7 | 0.00 | 0.00 | 0.00 | 70 | 1014.7 |
| 20260510040022 | 65 | 265 | 1.7 | 2.6 | 0.00 | 0.00 | 0.00 | 68 | 1014.6 |
| 20260510035306 | 65 | 265 | 0.9 | 2.6 | 0.00 | 0.00 | 0.00 | 67 | 1014.4 |
| 20260510034750 | 66 | 265 | 0.9 | 2.6 | 0.00 | 0.00 | 0.00 | 67 | 1014.4 |
| 20260510034237 | 66 | 252 | 0.9 | 2.6 | 0.00 | 0.00 | 0.00 | 66 | 1014.3 |
| 20260510033723 | 66 | 252 | 1.7 | 2.6 | 0.00 | 0.00 | 0.00 | 66 | 1014.3 |
| 20260510033219 | 67 | 270 | 1.7 | 2.6 | 0.00 | 0.00 | 0.00 | 66 | 1014.3 |
| 20260510032719 | 67 | 258 | 1.7 | 2.6 | 0.00 | 0.00 | 0.00 | 65 | 1014.3 |
| 20260510032220 | 67 | 270 | 1.7 | 2.6 | 0.00 | 0.00 | 0.00 | 65 | 1014.3 |
| 20260510031940 | 68 | 257 | 1.7 | 2.6 | 0.00 | 0.00 | 0.00 | 65 | 1014.2 |
| 20260510031427 | 69 | 296 | 1.7 | 2.6 | 0.00 | 0.00 | 0.00 | 63 | 1014.2 |
| 20260510030710 | 69 | 296 | 0.9 | 2.6 | 0.00 | 0.00 | 0.00 | 62 | 1014.1 |
| 20260510030422 | 70 | 296 | 0.9 | 2.6 | 0.00 | 0.00 | 0.00 | 63 | 1014.1 |
| 20260510025654 | 71 | 296 | 0.9 | 2.6 | 0.00 | 0.00 | 0.00 | 58 | 1014.1 |
| 20260510025155 | 71 | 343 | 0.9 | 2.6 | 0.00 | 0.00 | 0.00 | 57 | 1014.0 |
| 20260510024649 | 71 | 343 | 1.7 | 2.6 | 0.00 | 0.00 | 0.00 | 56 | 1013.9 |
| 20260510024148 | 71 | 346 | 1.7 | 2.6 | 0.00 | 0.00 | 0.00 | 55 | 1013.9 |
| 20260510023641 | 72 | 356 | 2.6 | 4.3 | 0.00 | 0.00 | 0.00 | 54 | 1013.9 |
| 20260510023130 | 72 | 342 | 2.6 | 4.3 | 0.00 | 0.00 | 0.00 | 53 | 1014.0 |
| 20260510022621 | 72 | 324 | 2.6 | 3.5 | 0.00 | 0.00 | 0.00 | 53 | 1014.0 |
| 20260510022542 | 73 | 320 | 2.6 | 5.2 | 0.00 | 0.00 | 0.00 | 51 | 1014.1 |
| 20260510021552 | 73 | 2 | 2.6 | 5.2 | 0.00 | 0.00 | 0.00 | 51 | 1014.0 |
| 20260510021045 | 73 | 328 | 3.5 | 7.0 | 0.00 | 0.00 | 0.00 | 50 | 1014.2 |
| 20260510020546 | 73 | 350 | 3.5 | 7.0 | 0.00 | 0.00 | 0.00 | 49 | 1014.2 |
| 20260510020045 | 73 | 4 | 2.6 | 5.2 | 0.00 | 0.00 | 0.00 | 50 | 1014.3 |
| 20260510015545 | 73 | 357 | 2.6 | 5.2 | 0.00 | 0.00 | 0.00 | 51 | 1014.4 |
| 20260510015045 | 74 | 346 | 2.6 | 5.2 | 0.00 | 0.00 | 0.00 | 51 | 1014.4 |
| 20260510014549 | 74 | 352 | 2.6 | 4.3 | 0.00 | 0.00 | 0.00 | 50 | 1014.4 |
| 20260510014047 | 75 | 327 | 2.6 | 6.1 | 0.00 | 0.00 | 0.00 | 50 | 1014.3 |
| 20260510013540 | 74 | 0 | 3.5 | 7.0 | 0.00 | 0.00 | 0.00 | 49 | 1014.3 |
| 20260510013300 | 75 | 359 | 3.5 | 7.0 | 0.00 | 0.00 | 0.00 | 46 | 1014.4 |
| 20260510012800 | 75 | 3 | 3.5 | 7.0 | 0.00 | 0.00 | 0.00 | 49 | 1014.3 |
| 20260510012037 | 75 | 347 | 3.5 | 7.0 | 0.00 | 0.00 | 0.00 | 48 | 1014.3 |
| 20260510011536 | 76 | 348 | 3.5 | 7.0 | 0.00 | 0.00 | 0.00 | 49 | 1014.5 |
| 20260510011036 | 75 | 350 | 3.5 | 7.8 | 0.00 | 0.00 | 0.00 | 49 | 1014.5 |
| 20260510010534 | 75 | 337 | 3.5 | 7.8 | 0.00 | 0.00 | 0.00 | 49 | 1014.4 |
| 20260510010300 | 75 | 359 | 4.3 | 7.0 | 0.00 | 0.00 | 0.00 | 48 | 1014.5 |
| 20260510005531 | 76 | 343 | 4.3 | 7.8 | 0.00 | 0.00 | 0.00 | 47 | 1014.6 |
| 20260510005034 | 76 | 345 | 4.3 | 8.7 | 0.00 | 0.00 | 0.00 | 45 | 1014.6 |
| 20260510004530 | 75 | 352 | 4.3 | 9.6 | 0.00 | 0.00 | 0.00 | 46 | 1014.6 |
| 20260510004032 | 76 | 15 | 4.3 | 9.6 | 0.00 | 0.00 | 0.00 | 44 | 1014.6 |
| 20260510003531 | 76 | 337 | 4.3 | 9.6 | 0.00 | 0.00 | 0.00 | 45 | 1014.6 |
| 20260510003030 | 77 | 321 | 4.3 | 9.6 | 0.00 | 0.00 | 0.00 | 42 | 1014.7 |
| 20260510002532 | 76 | 3 | 4.3 | 9.6 | 0.00 | 0.00 | 0.00 | 44 | 1014.6 |
| 20260510002031 | 76 | 336 | 4.3 | 9.6 | 0.00 | 0.00 | 0.00 | 45 | 1014.7 |
| 20260510001748 | 76 | 357 | 4.3 | 8.7 | 0.00 | 0.00 | 0.00 | 46 | 1014.7 |
| 20260510001024 | 77 | 358 | 4.3 | 8.7 | 0.00 | 0.00 | 0.00 | 46 | 1014.6 |
| 20260510000522 | 76 | 344 | 4.3 | 8.7 | 0.00 | 0.00 | 0.00 | 48 | 1014.7 |
| 20260510000021 | 76 | 33 | 4.3 | 8.7 | 0.00 | 0.00 | 0.00 | 46 | 1014.7 |
| 20260509235738 | 77 | 0 | 6.1 | 11.3 | 0.00 | 0.00 | 0.00 | 46 | 1014.7 |
| 20260509235618 | 76 | 2 | 5.2 | 11.3 | 0.00 | 0.00 | 0.00 | 46 | 1014.7 |
| 20260509234736 | 76 | 359 | 6.1 | 9.6 | 0.00 | 0.00 | 0.00 | 48 | 1014.8 |
| 20260509234239 | 77 | 12 | 6.1 | 9.6 | 0.00 | 0.00 | 0.00 | 50 | 1014.7 |
| 20260509233511 | 77 | 344 | 5.2 | 10.4 | 0.00 | 0.00 | 0.00 | 48 | 1014.7 |
| 20260509233007 | 77 | 5 | 6.1 | 10.4 | 0.00 | 0.00 | 0.00 | 48 | 1014.8 |
| 20260509232506 | 76 | 356 | 5.2 | 9.6 | 0.00 | 0.00 | 0.00 | 47 | 1014.8 |
| 20260509232005 | 76 | 359 | 6.1 | 9.6 | 0.00 | 0.00 | 0.00 | 50 | 1014.9 |
| 20260509231501 | 76 | 21 | 6.1 | 9.6 | 0.00 | 0.00 | 0.00 | 46 | 1015.0 |
| 20260509231003 | 76 | 16 | 6.1 | 9.6 | 0.00 | 0.00 | 0.00 | 50 | 1015.1 |
| 20260509230458 | 76 | 11 | 6.1 | 10.4 | 0.00 | 0.00 | 0.00 | 48 | 1015.1 |
| 20260509225958 | 76 | 352 | 5.2 | 10.4 | 0.00 | 0.00 | 0.00 | 50 | 1015.2 |
| 20260509225458 | 77 | 333 | 5.2 | 10.4 | 0.00 | 0.00 | 0.00 | 50 | 1015.3 |
| 20260509224956 | 76 | 344 | 6.1 | 15.6 | 0.00 | 0.00 | 0.00 | 52 | 1015.5 |
| 20260509224719 | 76 | 344 | 6.1 | 15.6 | 0.00 | 0.00 | 0.00 | 53 | 1015.6 |
| 20260509223954 | 76 | 344 | 6.1 | 13.0 | 0.00 | 0.00 | 0.00 | 54 | 1015.6 |
| 20260509223454 | 76 | 348 | 7.0 | 13.0 | 0.00 | 0.00 | 0.00 | 53 | 1015.6 |
| 20260509222953 | 77 | 348 | 6.1 | 11.3 | 0.00 | 0.00 | 0.00 | 53 | 1015.6 |
| 20260509222454 | 76 | 6 | 5.2 | 10.4 | 0.00 | 0.00 | 0.00 | 53 | 1015.7 |
| 20260509221954 | 76 | 19 | 4.3 | 9.6 | 0.00 | 0.00 | 0.00 | 51 | 1015.8 |
| 20260509221451 | 76 | 345 | 4.3 | 8.7 | 0.00 | 0.00 | 0.00 | 54 | 1015.8 |
| 20260509221210 | 76 | 31 | 5.2 | 8.7 | 0.00 | 0.00 | 0.00 | 53 | 1015.9 |
| 20260509220450 | 76 | 76 | 6.1 | 11.3 | 0.00 | 0.00 | 0.00 | 50 | 1016.0 |
| 20260509215949 | 75 | 48 | 6.1 | 11.3 | 0.00 | 0.00 | 0.00 | 55 | 1016.2 |
| 20260509215449 | 75 | 350 | 6.1 | 10.4 | 0.00 | 0.00 | 0.00 | 54 | 1016.2 |
| 20260509214947 | 75 | 6 | 6.1 | 10.4 | 0.00 | 0.00 | 0.00 | 55 | 1016.3 |
| 20260509214446 | 74 | 4 | 6.1 | 10.4 | 0.00 | 0.00 | 0.00 | 55 | 1016.5 |
| 20260509213946 | 75 | 64 | 6.1 | 10.4 | 0.00 | 0.00 | 0.00 | 55 | 1016.6 |
| 20260509213445 | 76 | 29 | 6.1 | 11.3 | 0.00 | 0.00 | 0.00 | 56 | 1016.5 |
| 20260509212945 | 75 | 8 | 6.1 | 11.3 | 0.00 | 0.00 | 0.00 | 54 | 1016.5 |
| 20260509212445 | 75 | 2 | 7.0 | 12.2 | 0.00 | 0.00 | 0.00 | 53 | 1016.4 |
| 20260509211942 | 75 | 349 | 6.1 | 12.2 | 0.00 | 0.00 | 0.00 | 53 | 1016.6 |
| 20260509211444 | 75 | 5 | 5.2 | 10.4 | 0.00 | 0.00 | 0.00 | 55 | 1016.6 |
| 20260509210944 | 75 | 352 | 4.3 | 9.6 | 0.00 | 0.00 | 0.00 | 59 | 1016.6 |
| 20260509210702 | 75 | 4 | 5.2 | 11.3 | 0.00 | 0.00 | 0.00 | 56 | 1016.5 |
| 20260509210205 | 75 | 9 | 6.1 | 11.3 | 0.00 | 0.00 | 0.00 | 56 | 1016.7 |
| 20260509205440 | 73 | 13 | 5.2 | 9.6 | 0.00 | 0.00 | 0.00 | 58 | 1016.9 |
| 20260509204939 | 72 | 352 | 5.2 | 11.3 | 0.00 | 0.00 | 0.00 | 58 | 1016.8 |
| 20260509204439 | 74 | 356 | 6.1 | 12.2 | 0.00 | 0.00 | 0.00 | 54 | 1016.8 |
| 20260509203937 | 74 | 13 | 6.1 | 12.2 | 0.00 | 0.00 | 0.00 | 54 | 1016.9 |
| 20260509203659 | 75 | 343 | 5.2 | 11.3 | 0.00 | 0.00 | 0.00 | 57 | 1017.1 |
| 20260509202936 | 74 | 329 | 5.2 | 10.4 | 0.00 | 0.00 | 0.00 | 57 | 1017.0 |
| 20260509202433 | 74 | 28 | 6.1 | 10.4 | 0.00 | 0.00 | 0.00 | 58 | 1017.1 |